STARLINK-35173

Last updated on Mon Oct 20 2025 00:02:06 GMT+0000 (Coordinated Universal Time)

1 65744U 25216L 25292.23626667 .00118870 00000+0 21103-2 0 9993 2 65744 53.1588 272.2535 0001209 88.2518 271.8629 15.49345433 4907
UTC large
Height (km)
Speed (km/s)
/
Latitude / Longitude
Inclination (degrees)
Orbital Period (minutes)
Azimuth
Elevation
Range (km)
Doppler Factor

Next 0 passes for location: London (51.5072 / 0.1276)

Sorry there are no passes over London.